Tracking 18630 objects as of 27-May-2017
HD Live streaming from Space Station
objects crossing your sky now

COSMOS 970 DEB

Track COSMOS 970 DEB now!
10-day predictions


NORAD ID: 12862
Int'l Code: 1977-121AQ
Perigee: 774.9 km
Apogee: 993.0 km
Inclination: 66.2 °
Period: 102.5 minutes
Semi major axis: 7254 km
RCS: 0.0129 m2 (small)
Launch date: December 21, 1977
Source: Commonwealth of Independent States (former USSR) (CIS)
Launch site: TYURATAM MISSILE AND SPACE COMPLEX (TTMTR)

Note: This is SATELLITE DEBRIS
Your satellite tracking list
Your tracking list is empty





NASA's NSSDC Master Catalog

Two Line Element Set (TLE):
1 12862U 77121AQ  17146.59039142 +.00000196 +00000-0 +15719-3 0  9991
2 12862 066.2105 322.8684 0150263 005.7541 053.0031 14.04920822885233
Source of the keplerian elements: AFSPC